www.pogodaiklimat.ru
ПОГОДА в Мерфрисборо
Время
и дата
03:35 15.07
03:55 15.07
04:15 15.07
04:35 15.07
04:55 15.07
05:15 15.07
05:35 15.07
05:55 15.07
06:15 15.07
06:35 15.07
06:55 15.07
07:15 15.07
07:35 15.07
07:55 15.07
08:15 15.07
08:35 15.07
08:55 15.07
09:15 15.07
09:35 15.07
09:55 15.07
10:15 15.07
10:35 15.07
10:55 15.07
11:15 15.07
11:35 15.07
11:55 15.07
12:15 15.07
12:35 15.07
12:55 15.07
13:15 15.07
13:35 15.07
13:55 15.07
14:15 15.07
14:35 15.07
14:55 15.07
15:15 15.07
15:35 15.07
15:55 15.07
16:15 15.07
16:35 15.07
16:55 15.07
17:15 15.07
17:35 15.07
17:55 15.07
18:15 15.07
18:35 15.07
18:55 15.07
19:15 15.07
Ветер
(напр.,м/с)
Видим. Явления Облачность Т
(С)
Тd
(С)
f
(%)
Тe
(С)
Тes
(С)
Комфортность P
(гПа)
Po
(гПа)
Тmin
(С)
Tmax
(С)
R
(мм)
R24
(мм)
S
(см)
Ю 2 16 км 5/5 1500 м +24.0 +21.0 83 +30 +30 очень
душно
994.1
штиль 0 16 км 5/5 1500 м +24.0 +21.0 83 +30 +30 очень
душно
994.1
Ю 2 16 км 2/2 1500 м +24.0 +21.0 83 +30 +30 очень
душно
994.5
Ю 2 16 км ясно +24.0 +21.0 83 +30 +30 очень
душно
994.8
16 км ясно +24.0 +21.0 83 +30 +30 очень
душно
994.8
Ю 2 14 км ясно +24.0 +21.0 83 +30 +30 очень
душно
995.1
Ю 2 16 км ясно +24.0 +21.0 83 +30 +30 очень
душно
995.5
Ю 2 16 км ясно +25.0 +21.0 78 +31 +31 очень
душно
995.5
Ю 3 16 км ясно +26.0 +21.0 74 +33 +34 очень
душно
995.5
Ю 3 16 км ясно +26.0 +21.0 74 +33 +34 очень
душно
995.5
Ю 2 16 км ясно +27.0 +21.0 70 +34 +36 очень
душно
995.8
ЮЗ 4 14 км ясно +28.0 +21.0 66 +35 +38 очень
душно
995.5
нст 3 16 км ясно +28.0 +22.0 70 +36 +40 очень
душно
995.1
ЮЗ 3 16 км ясно +29.0 +22.0 66 +37 +41 очень
душно
995.1
нст 3 16 км ясно +29.0 +22.0 66 +37 +45 очень
душно
995.1
штиль 0 16 км ясно +30.0 +22.0 62 +39 +51 опасность
солнечного
удара
995.1
штиль 0 16 км ясно +31.0 +22.0 59 +40 +52 опасность
солнечного
удара
994.8
нст 2 16 км ясно +32.0 +22.0 56 +41 +55 опасность
перегрева
994.8
нст 2 16 км 2/2 1260 м +32.0 +21.0 52 +39 +50 очень
душно
994.5
нст 3 14 км 5/5 1230 м +33.0 +22.0 52 +41 +47 опасность
перегрева
994.5
СЗ 3 16 км 8/8 1290 м +33.0 +21.0 49 +40 +43 очень
душно
994.1
штиль 0 16 км 5/5 1350 m
[Ac]
+33.0 +21.0 49 +40 +52 опасность
солнечного
удара
994.1
ЮЗ 5 16 км 8/8 1470 м +34.0 +21.0 47 +41 +43 очень
душно
993.8
З 4
{7}
16 км 5/5 1500 m
[Ac]
+34.0 +21.0 47 +41 +48 опасность
перегрева
993.8
ЮЗ 3
{7}
14 км 2/0 2250 m
[Ac]
+34.0 +21.0 47 +41 +56 опасность
перегрева
993.1
ЮЗ 4
{7}
16 км ясно +35.0 +20.0 42 +41 +55 опасность
перегрева
993.1
Ю 4
{7}
14 км ясно +35.0 +20.0 42 +41 +55 опасность
перегрева
992.8
ЮЗ 4 14 км ясно +35.0 +20.0 42 +41 +55 опасность
перегрева
992.5
нст 2
{7}
14 км 5/5 1800 м +35.0 +20.0 42 +41 +52 опасность
перегрева
992.1
ЮЗ 5 16 км 8/8 1800 m
[Ac]
+35.0 +20.0 42 +41 +43 очень
душно
991.8
Ю 2
{6}
14 км 5/5 1800 m
[Ac]
+35.0 +20.0 42 +41 +51 опасность
перегрева
991.8
нст 3
{7}
16 км 5/2 1800 m
[Ac]
+36.0 +20.0 39 +42 +51 опасность
перегрева
991.5
нст 2
{6}
16 км ясно +35.0 +19.0 39 +40 +56 опасность
солнечного
удара
991.1
нст 2
{5}
14 км 8/8 1950 m
[Ac]
+36.0 +20.0 39 +42 +45 опасность
перегрева
990.8
нст 2 16 км 5/5 1950 m
[Ac]
+36.0 +20.0 39 +42 +50 опасность
перегрева
990.5
Ю 3 10 км мгла 5/0 2100 m
[Ac]
+36.0 +20.0 39 +42 +48 опасность
перегрева
990.5
З 4 16 км 5/0 2100 m
[Ac]
+36.0 +19.0 37 +41 +46 опасность
перегрева
990.5
З 4 16 км 5/0 2100 m
[Ac]
+36.0 +19.0 37 +41 +46 опасность
перегрева
990.2
З 3
{6}
14 км 8/8 1950 m
[Ac]
+36.0 +19.0 37 +41 +42 опасность
перегрева
990.2
ЮЗ 4 16 км 5/2 1950 m
[Ac]
+36.0 +19.0 37 +41 +43 опасность
перегрева
990.2
нст 3
{7}
16 км ясно +36.0 +19.0 37 +41 +46 опасность
перегрева
989.8
нст 2 16 км ясно +36.0 +19.0 37 +41 +44 опасность
перегрева
990.2
ЮЗ 3
{6}
16 км 2/2 1950 м +35.0 +19.0 39 +40 +42 очень
душно
990.2
З 3 14 км ясно +35.0 +19.0 39 +40 +42 очень
душно
989.8
ЮЗ 3 16 км ясно +35.0 +19.0 39 +40 +40 очень
душно
989.8
З 3 16 км ясно +35.0 +19.0 39 +40 +40 очень
душно
989.8
З 2 16 км 2/2 1950 м +34.0 +19.0 41 +39 +39 очень
душно
990.2
ЮЗ 5 16 км 8/8 1950 m
[Ac]
+34.0 +19.0 41 +39 +39 очень
душно
990.2
Местоположение метеостанции Murfreesboro Municipal Airport: широта 35.8775 долгота -86.3775 высота над уровнем моря 187 м.
В архиве по умолчанию представлена погода в Мерфрисборо за последние 1-2 суток. Обновление информации о фактической погоде в базе происходит ежечасно! Архивные данные за месяц целиком и за предыдущие месяцы Вы можете получить, выбрав интересующий диапазон дат из раскрывающегося списка и нажав кнопку "Ввод!".
Внимание! Архив погоды МЕТАР в базе сайта по станциям, не включенным в климатический монитор, хранится не более 60 дней. Нет смысла пытаться выбрать более раннюю дату.
*Определитесь, кто Вы:
Внимание! Время в таблицах - местное (без учета летнего времени). Для получения всемирного времени необходимо вычесть поправку, которая равна -6 ч.
Смотрите также архив погоды в соседних городах и на ближайших метеорологических станциях:
Партнеры нашего сайта:      
Пояснения к столбцам:
  • Ветер - указаны скорость ветра в м/с - средняя за 10 мин, порывы в срок и между сроками (в фигурных скобках) и направление, откуда дует ветер: С - северный,
  • СВ - северо-восточный, В - восточный, ЮВ - юго-восточный, Ю - южный, ЮЗ - юго-западный, З - западный, СЗ - северо-западный.
  • Видимость - горизонтальная дальность видимости в метрах или километрах. При видимости от 1 до 10 км при отсутствии осадков обычно наблюдается дымка, при ухудшении видимости до 1 км и менее - туман. В сухую погоду видимость может ухудшаться дымом, пылью или мглою.
  • Явления - указаны атмосферные явления, наблюдавшиеся в срок или в последний час перед сроком; фигурными скобками обозначены явления, наблюдавшиеся между сроками (за 1-3 часа до срока); квадратными скобками обозначены град или гололедные отложения с указанием их диаметра в мм.
  • Облачность - указаны через наклонную черту общая и нижняя облачность в баллах и высота нижней границы облаков в метрах; квадратными скобками обозначены формы облаков: Ci - перистые, Cs - перисто-слоистые, Cc - перисто-кучевые, Ac - высококучевые, As - высокослоистые, Sc - слоисто-кучевые, Ns - слоисто-дождевые, Cu - кучевые, Cb - кучево-дождевые. Подробнее классификацию облаков см. в Атласе облаков (PDF).
  • T - Температура воздуха - температура, измеренная на высоте 2 м над землей.
  • Td - Температура точки росы - температура, при понижении до которой содержащийся в воздухе водяной пар достигнет насыщения.
  • f - Относительная влажность воздуха - влажноcть воздуха, измеренная на высоте 2 м над землей.
  • Te - Эффективная температура - температура, которую ощущает одетый по сезону человек в тени. Характеристика душности погоды. При расчете учитывается влияние влажности воздуха и скорости ветра на теплоощущения человека.
  • Tes - Эффективная температура на солнце - температура, которую ощущает человек, с поправкой на солнечный нагрев. Характеристика знойности погоды. Зависит от высоты солнца над горизонтом, облачности и скорости ветра. Ночью, в пасмурную погоду, а также при ветре 12 м/с и более поправка равна нулю.
  • P - Атмосферное давление - приведенное к уровню моря атмосферное давление.
  • Po - Атмосферное давление - измеренное на уровне метеостанции атмосферное давление.
  • Tmin - Минимальная температура - минимум температуры воздуха на высоте 2 м над землей.
  • Tmax - Максимальная температура - максимум температуры воздуха на высоте 2 м над землей.
  • R - Количество осадков - Количество выпавших осадков за период времени, мм. При наведении курсора мыши на число - период времени, за который выпало указанное количество осадков.
  • R24 - Количество осадков - Количество выпавших осадков за 24 часа, мм.
  • S - Снежный покров - Высота снежного покрова, см. При наведении курсора мыши на число - состояние снежного покрова и степень покрытия местности в баллах.